Theta_e
325 327 327 326 325 326 325 323 322 323 323 323 322 322 321 322 324 324 325 325 324 322 318 317 315 314 311 310 310 309 307 306 308 305 306 305 306 308 310 311 311 311 311
321 323 324 324 324 324 323 322 321 322 323 323 323 322 322 323 323 325 324 325 322 320 320 316 315 313 310 308 308 307 306 306 307 303 302 298 300 306 307 307 309 312 313
318 318 318 319 320 319 320 319 318 318 318 321 323 322 323 320 321 322 323 323 323 322 322 318 315 311 310 307 307 307 305 304 306 306 302 297 295 301 303 305 307 308 308
314 313 312 312 313 316 317 317 317 317 318 318 317 316 314 314 318 318 322 321 321 318 320 318 312 310 310 308 308 310 308 305 303 304 306 303 302 298 296 301 303 306 307
309 309 310 312 313 314 314 316 316 316 317 317 318 316 315 317 318 316 314 314 315 316 315 314 311 312 310 308 309 308 308 306 304 302 302 300 301 300 297 295 300 302 306
308 309 311 312 313 315 316 316 315 315 316 316 317 317 315 313 313 312 312 312 312 311 312 312 312 311 309 308 308 308 307 306 305 304 303 300 299 299 297 295 299 298 303
308 308 309 310 311 312 312 312 311 311 312 312 313 311 311 312 311 308 309 310 310 310 310 312 313 309 309 309 309 307 307 306 305 304 303 303 301 303 299 298 300 301 304
307 306 309 309 308 309 310 308 308 307 308 309 308 309 312 308 307 308 308 308 308 309 312 312 311 311 314 313 308 307 307 309 306 305 304 303 304 304 303 299 299 301 300
304 305 305 308 309 308 305 308 308 306 305 306 306 307 307 309 309 310 310 311 311 313 312 313 311 309 310 312 308 309 306 309 306 304 303 303 303 304 302 301 301 301 298
306 307 308 309 309 308 308 307 305 304 305 304 307 308 309 308 309 310 309 310 310 310 310 310 310 309 309 309 311 310 310 307 305 305 303 302 303 302 301 301 301 303 303
306 305 306 307 306 303 303 303 303 303 303 306 304 305 305 304 308 309 310 310 310 310 310 311 311 311 312 312 310 309 308 306 305 304 304 303 303 302 301 300 299 300 303
304 305 304 302 302 301 302 302 303 303 304 303 304 303 301 303 305 306 308 307 308 309 310 310 310 310 310 310 309 305 306 305 304 304 304 303 307 305 300 298 297 298 299
302 303 300 300 301 301 302 302 303 303 303 304 302 302 301 303 303 304 306 309 308 308 309 308 308 308 309 306 304 305 303 304 304 304 304 303 302 301 300 299 298 301 306
301 300 299 299 299 302 302 303 305 306 304 303 301 301 302 303 304 305 305 307 306 307 308 307 307 304 302 302 301 301 300 301 303 304 303 303 303 300 299 299 298 299 301
300 299 298 298 300 303 302 304 304 304 302 302 302 302 304 305 305 304 305 305 306 308 307 304 304 302 302 301 299 298 298 298 300 304 306 303 307 309 306 304 303 303 302
299 299 301 300 300 301 304 305 304 303 303 302 302 305 304 304 303 303 303 303 303 303 303 302 300 299 302 300 301 300 296 297 300 304 302 303 307 306 307 308 309 308 302
299 299 299 299 301 303 304 304 302 304 303 303 304 304 303 303 304 303 302 302 300 299 298 298 300 300 301 299 299 300 297 298 304 299 298 301 305 302 304 307 306 307 307
299 299 299 302 303 304 304 302 304 303 303 304 304 305 304 300 300 300 299 300 300 299 299 300 300 301 301 299 299 301 305 304 300 298 298 301 302 302 304 304 303 303 304
300 300 301 303 303 302 303 302 303 303 303 304 303 303 301 300 300 299 297 298 299 299 299 300 299 300 299 298 298 301 301 299 298 301 301 300 300 299 301 303 303 303 303
301 300 304 305 304 304 303 300 301 303 303 303 302 302 300 301 299 299 298 297 298 299 301 301 301 301 300 298 298 299 300 300 300 300 300 300 299 297 299 303 302 301 301
302 304 302 301 303 304 303 299 300 301 303 302 302 301 301 300 300 299 299 300 300 301 301 300 301 301 301 300 298 299 301 300 300 300 300 299 297 296 297 300 302 301 303
301 301 299 301 303 303 302 300 299 302 303 302 301 301 299 300 299 296 300 300 300 299 299 300 300 301 301 300 298 298 299 302 300 300 300 300 295 295 296 297 296 298 300
301 302 300 299 302 303 302 300 301 303 303 300 301 301 302 300 301 300 298 298 299 299 299 299 300 300 301 301 300 298 299 301 300 302 300 297 297 297 298 297 297 298 298
299 301 301 299 301 302 303 303 303 303 301 298 300 301 301 300 299 300 300 299 297 298 299 299 300 300 300 299 300 302 302 302 304 304 302 301 299 299 300 299 299 298 297
303 302 300 301 302 303 303 303 303 303 300 299 301 302 301 301 300 298 298 300 298 296 297 298 299 298 298 298 295 296 301 302 300 301 301 300 299 298 297 297 296 296 296
302 301 301 302 302 302 301 304 304 303 300 301 302 302 303 303 302 302 301 296 295 295 294 293 294 300 296 295 295 296 296 295 295 300 296 295 296 296 297 299 299 299 302
Wind_Speed
11 11 13 12 11 8 11 11 10 9 7 5 3 4 5 4 5 4 6 6 2 4 2 3 3 3 2 1 1 2 3 3 3 3 5 4 4 4 7 5 6 5 5
11 11 11 9 9 12 12 10 9 7 4 2 2 2 3 3 4 4 5 4 4 4 3 4 2 1 2 4 2 3 3 3 2 2 2 4 5 6 7 6 6 7 5
13 13 13 12 12 11 8 7 6 6 4 5 3 3 2 2 2 5 4 3 2 5 4 5 4 2 1 2 1 2 2 3 4 3 1 3 2 6 3 4 6 8 5
15 12 12 12 10 8 6 6 6 6 5 4 4 4 3 3 3 3 4 4 5 6 5 6 5 4 2 2 1 1 2 0 4 3 2 2 3 1 5 3 4 8 8
14 11 9 6 6 5 6 5 5 5 3 4 5 4 5 4 3 2 5 6 5 3 5 6 6 4 2 2 2 3 4 2 1 1 2 2 1 2 1 4 7 5 5
11 8 4 0 2 2 1 2 2 1 3 5 7 9 8 5 4 4 4 4 3 1 3 4 4 4 3 2 2 3 4 3 2 2 2 1 2 2 0 2 5 4 4
5 3 1 1 1 1 1 2 1 2 4 5 5 5 6 6 6 4 3 5 4 2 5 4 4 2 3 4 3 3 3 3 2 2 2 1 2 1 1 0 3 3 3
3 2 3 4 6 5 2 2 4 4 8 8 7 6 6 4 4 4 4 4 4 5 5 5 4 4 4 4 4 3 2 4 3 4 3 1 3 2 2 2 2 4 2
5 4 2 5 5 5 5 6 7 6 7 7 6 6 6 7 6 8 6 5 6 5 4 4 3 4 4 3 3 3 3 3 2 3 2 2 2 2 1 1 2 2 2
4 4 5 5 5 8 7 7 8 6 5 7 6 7 6 9 11 8 9 6 8 9 8 6 7 6 5 4 3 1 2 1 2 2 1 2 1 1 1 2 2 1 2
0 2 4 4 5 6 6 6 6 8 8 7 6 6 5 5 10 9 3 5 4 6 6 8 6 4 6 6 5 0 2 1 2 3 1 3 0 0 1 2 2 2 1
2 2 4 6 7 7 7 6 6 6 6 6 5 3 3 4 5 6 7 5 5 5 6 5 7 8 8 6 6 6 6 6 6 5 3 3 1 2 2 2 4 1 2
3 5 7 6 6 6 6 6 7 7 7 7 7 4 5 6 7 6 6 7 6 8 8 8 7 5 6 7 7 7 6 6 6 5 3 2 1 3 2 2 4 3 2
7 5 7 6 5 5 6 6 6 6 6 6 7 6 5 6 6 6 6 5 5 7 8 7 9 8 7 8 8 8 7 7 6 5 2 3 3 1 2 2 3 3 2
8 6 7 6 7 7 6 6 6 7 7 7 7 6 6 6 5 6 6 6 6 6 7 7 6 6 6 7 6 5 5 6 6 6 3 3 6 6 1 2 3 3 2
6 9 7 6 7 6 6 7 7 6 6 6 6 6 6 7 7 7 7 7 7 7 7 7 6 6 4 11 12 8 5 5 5 5 6 6 8 7 8 8 6 3 1
8 6 6 4 5 6 6 6 6 6 7 6 6 7 6 7 8 8 8 8 6 5 6 5 5 5 4 12 13 12 4 4 4 6 5 5 5 7 4 7 8 7 4
6 6 6 4 5 5 6 7 6 6 7 7 7 9 9 8 7 7 7 6 4 5 4 4 4 4 4 12 13 13 6 6 6 5 6 5 5 6 3 5 5 6 7
6 5 5 3 6 7 6 7 7 6 6 6 9 8 8 8 8 7 7 6 5 4 4 3 5 5 4 13 13 7 6 6 6 7 6 5 5 8 7 5 6 6 6
5 6 6 7 9 8 7 7 7 9 11 8 7 7 5 7 6 7 7 4 4 3 3 4 5 9 5 11 12 8 4 7 5 6 6 11 6 7 8 5 4 5 3
10 11 9 7 7 8 9 9 9 8 7 6 6 6 7 6 6 5 4 6 5 7 7 6 4 5 6 7 10 10 6 4 4 4 5 5 9 8 8 7 4 3 2
7 7 7 8 8 8 8 9 9 7 7 6 6 7 6 4 4 5 6 8 8 8 7 6 6 5 5 8 9 8 8 5 3 3 2 2 7 9 8 4 1 3 3
8 7 6 6 7 7 8 8 7 6 6 7 6 7 8 6 7 9 9 7 7 6 6 5 5 5 5 4 4 5 5 5 2 3 6 7 7 6 4 5 7 4 2
6 4 5 7 7 7 7 6 6 6 5 6 5 5 6 7 7 5 4 5 6 5 5 5 4 4 4 4 4 3 1 4 3 4 3 4 7 8 5 4 5 3 3
4 4 4 4 6 6 6 6 6 5 5 5 4 4 2 3 3 4 3 4 3 2 3 3 4 4 4 5 6 6 4 4 5 4 3 2 3 3 2 1 3 3 3
5 5 6 6 5 5 5 4 4 5 5 5 4 4 4 3 4 4 3 2 3 6 9 7 5 3 4 8 9 10 10 10 9 2 1 2 2 3 3 3 4 4 5
Wind_Direction
73 75 95 93 94 100 72 59 55 32 32 22 359 338 313 352 6 342 314 341 274 107 115 131 61 37 2 292 346 337 4 322 313 328 315 296 286 38 351 337 333 341 336
86 73 72 75 76 72 63 55 49 43 33 25 301 270 323 332 314 316 351 330 295 189 210 160 122 69 351 343 360 23 345 301 314 270 265 323 333 3 331 347 338 348 338
75 58 58 52 50 55 58 56 53 28 17 12 18 356 345 302 28 327 320 309 268 267 257 169 162 179 213 285 315 356 32 305 308 334 135 350 336 324 335 338 340 347 345
68 61 56 54 51 41 38 56 41 42 354 8 22 350 25 4 279 255 292 302 290 284 282 185 160 178 226 271 302 349 295 199 293 344 3 111 190 344 323 316 347 339 349
87 79 75 78 68 51 33 10 50 17 301 356 18 339 292 250 253 305 318 308 300 329 133 158 173 177 218 249 326 319 316 309 286 334 315 2 357 107 248 308 332 340 336
60 61 53 238 140 202 203 225 358 331 326 314 281 254 261 309 318 313 313 312 306 242 184 186 204 180 201 232 250 269 291 274 301 258 336 341 296 277 125 300 328 282 317
74 71 359 11 7 152 138 112 42 316 282 282 322 330 339 340 349 4 336 329 324 314 264 241 236 216 232 233 220 237 277 272 249 237 270 290 305 328 227 313 291 292 297
133 180 252 283 284 301 223 321 289 353 2 5 1 2 356 339 322 310 314 298 286 290 291 279 261 259 256 252 200 227 231 241 236 257 240 239 282 268 205 190 237 315 290
134 139 37 355 340 340 324 358 34 41 17 355 346 348 342 337 331 321 312 323 318 305 303 323 309 307 298 271 203 214 232 229 226 278 235 213 263 314 271 245 220 218 306
87 21 17 326 316 326 29 37 24 19 7 345 328 342 356 18 350 2 330 336 343 327 327 319 336 296 289 272 199 103 287 112 261 277 358 324 249 61 353 326 336 301 233
96 27 267 299 7 38 55 35 18 6 335 323 325 30 14 3 38 303 325 338 8 318 350 346 316 9 31 10 30 75 279 12 295 306 307 320 97 87 360 22 343 335 351
54 330 342 77 49 26 11 355 345 346 328 327 14 28 30 14 319 290 330 328 340 360 2 357 2 54 64 6 357 29 24 26 12 344 355 348 96 9 40 16 346 308 296
84 9 45 35 34 12 353 15 8 341 341 353 352 339 354 327 306 320 347 28 13 26 1 11 12 42 59 64 15 21 19 13 9 2 18 335 18 9 13 355 343 325 349
66 50 28 2 355 2 28 350 346 338 338 345 326 359 359 344 339 1 30 29 14 26 23 35 31 54 49 39 20 8 358 352 341 334 27 32 11 359 14 345 315 326 341
42 24 24 42 24 16 347 351 335 330 323 328 335 8 17 27 23 20 22 11 11 44 57 46 41 34 32 15 4 351 333 319 320 321 338 12 25 26 305 283 307 340 359
24 40 36 35 8 349 359 341 332 321 345 354 9 32 25 12 17 29 35 35 34 36 46 42 30 22 19 358 353 341 316 309 315 343 21 11 39 20 5 349 350 256 87
57 28 22 10 1 354 324 335 344 356 358 17 24 35 46 35 27 30 32 33 21 31 32 28 29 3 10 349 334 333 299 313 51 48 22 0 25 13 358 41 44 54 80
27 7 348 356 360 359 8 354 11 19 18 32 38 33 38 34 19 20 20 10 13 4 10 1 3 354 21 354 343 354 67 66 54 48 23 356 3 357 34 61 57 56 46
18 339 333 14 2 9 8 13 11 12 22 24 42 38 32 27 19 12 6 3 354 351 359 355 1 4 26 1 358 18 47 58 44 42 28 23 18 2 52 59 66 70 60
30 23 21 27 23 20 32 28 9 26 39 51 30 33 28 34 24 10 354 338 340 345 355 356 46 30 12 10 7 25 50 50 40 34 29 31 39 41 50 65 67 67 19
38 39 49 45 19 15 33 32 24 32 30 26 40 32 31 25 10 357 333 339 348 26 53 47 30 17 17 21 25 37 50 42 48 39 34 29 36 42 55 66 68 63 15
55 29 40 41 36 28 31 33 29 14 26 23 33 28 4 8 357 5 10 24 25 33 27 25 29 26 14 29 35 48 58 35 53 29 6 52 46 53 51 65 100 28 89
51 38 43 30 32 31 31 29 8 7 23 26 22 24 26 20 32 38 28 24 21 18 11 15 23 16 3 355 32 76 61 32 40 23 49 72 63 67 72 60 92 137 148
60 36 26 31 26 22 25 23 7 30 30 13 12 27 33 39 39 27 23 26 13 8 9 10 21 10 360 350 353 29 3 282 359 18 43 27 33 35 31 31 19 354 337
62 55 54 23 40 27 28 13 15 19 28 7 4 5 42 30 45 58 23 24 24 340 330 358 7 358 360 340 350 343 15 23 29 60 30 11 354 4 342 288 258 258 262
24 42 44 63 34 22 18 1 9 27 15 7 1 4 10 21 17 12 13 68 44 351 30 37 34 344 342 353 356 6 7 354 11 13 50 314 311 312 304 303 293 245 262